Tracking 19794 objects as of 22-Jul-2019
HD Live streaming from Space Station
objects crossing your sky now

SL-12 R/B(AUX MOTOR)

Track SL-12 R/B(AUX MOTOR) now!
10-day predictions


NORAD ID: 13609
Int'l Code: 1982-100G
Perigee: 293.6 km
Apogee: 13,588.1 km
Inclination: 52.1 °
Period: 254.8 minutes
Semi major axis: 13311 km
RCS: 0.8417 m2 (medium)
Launch date: October 12, 1982
Source: Commonwealth of Independent States (former USSR) (CIS)
Launch site: TYURATAM MISSILE AND SPACE COMPLEX (TTMTR)

Note: This is a ROCKET BODY
aabbcc
Your satellite tracking list
Your tracking list is empty




NASA's NSSDC Master Catalog

Two Line Element Set (TLE):
1 13609U 82100G   19202.82310229 +.00001450 +00000-0 +19536-3 0  9998
2 13609 052.0728 331.9529 4993508 227.9094 077.3808 05.65257755668659
Source of the keplerian elements: AFSPC